Tracking 17145 objects as of 23-May-2015
HD Live streaming from Space Station

BREEZE-M DEB

Track BREEZE-M DEB now!
10-day predictions
BREEZE-M DEB is classified as:


NORAD ID: 34254
Int'l Code: 2006-006BV
Perigee: 438.8 km
Apogee: 12,629.6 km
Inclination: 51.6 °
Period: 243.2 minutes
Semi major axis: 12905 km
RCS: 0.033 m2 (small)
Launch date: February 28, 2006
Source: Commonwealth of Independent States (former USSR) (CIS)

Note: This is SATELLITE DEBRIS
Your satellite tracking list
Your tracking list is empty





NASA's NSSDC Master Catalog

Two Line Element Set (TLE):
1 34254U 06006BV  15136.21590997  .00023214  00000-0  16959-1 0  9991
2 34254 051.6172 044.5910 4723207 131.6335 010.1958 05.92184347140060

Source of the keplerian elements: AFSPC

N2YO: 363